sat.trackr.live / text

‹ back to catalog

STARLINK-11667 [DTC]

NORAD 63550 · 2025-075C

PAYLOAD ACTIVE UNKNOWN

§ Identity

Operator
Country
US
Launch date
2025-04-13
Launch site
AFETR
Launch vehicle
Mass (kg)
RCS (m²)

Purposes: comms

External: N2YO · Heavens-Above · Gunter

§ Orbital elements

Epoch: 2026-09-20T13:22:47.733888Z

Period
91.67 min
Inclination
43.0001°
Eccentricity
0.0001752
Mean motion
15.70836006 rev/d
Perigee alt
355.3 km
Apogee alt
357.7 km
Semi-major
6,734.6 km
B*
9.9679e-4
RAAN
59.4417°
Arg perigee
290.0131°
Mean anomaly
70.0548°
Rev number
8,389

§ Raw data

STARLINK-11667 [DTC]1 63550U 25075C   26263.55749692  .00129442  00000+0  99679-3 0  99982 63550  43.0001  59.4417 0001752 290.0131  70.0548 15.70836006 83898

JSON: /api/v1/satellites/63550 · /tle

For live sub-satellite position, see the globe view (requires WebGL).

§ Visibility from observer

Set your observer location to see the next 7 days of passes ≥ 10°. The values pass through the URL so the page stays shareable.

No JS? Fill the form by hand. The geolocation button needs JavaScript.